Showing default

DIWATA 2B, 43678

Orbit data source: Space-Track

DIWATA 2B, 43678 is a Filipino payload satellite in SSO that was launched on Mon, 29 Oct 2018 UTC via an H-IIA 202 launch vehicle from the Tanegashima Space Center (TNSTA). Payload-class satellites include a variety of spacecraft equipped with specific instruments for various scientific and technological missions. These include communications satellites like Starlink; space stations such as the ISS; scientific satellites like the Hubble; Earth observation satellites from companies like Planet Labs, Umbra, and HawkEye 360; GPS; miniature CubeSats for education and research; and military/defense satellites.

Loading next visibility...
Identifier
43678, 2018-084H
Orbit
SSO
Country
Flag of RPRP
Related business
Manufacturer
UPD/HOKK
Mission
Operational Civil Imaging
Bus & Motor
DIWATA, Unknown motor
Mass
56 kg wet, 56 kg dry
Launch date (UTC)
2018-10-29 (7 years ago)
Launch vehicle
H-IIA 202
Launch site
Tanegashima Space Center (TNSTA)
Object type
Payload
Rocket body
Debris
Shape & HBR
Box + 2 Pan, 0.8 m
Radar Cross Section
0.514 m², Medium (>0.1 m² and < 1m²)

Expand to show TLE details & history
Last TLE update: 7 hours ago

TLE from 7 hours ago
0 DIWATA 2B
1 43678U 18084H   25290.98938947  .00005064  00000-0  42274-3 0  9991
2 43678  98.1074 112.2060 0007423 195.8702 164.2288 14.99020209379915
Epoch: 2025-10-17T23:44Z
TLE epoch observation values (Epoch: 2025-10-17T23:44:43.250Z)
Latitude
-0.00002°
Longitude
89.29895°
Altitude
577.928 km
Speed
7.569 km/s
True Right ascension
07h 28m 49s
True Declination
0° 00' 00"
Sunlit
Object was in daylight at epoch
Visualization orbit readout
Latitude
Unknown
Longitude
Unknown
Altitude
Unknown
Speed
Unknown
Apparent Right ascension
Unknown
Apparent Declination
Unknown
Sunlit
N/A
Visualization observer readout
Local Sidereal Time
01:33:21
Azimuth
Unknown
Elevation
Unknown
Doppler factor
Unknown
Orbital elements
Apogee altitude
572.103 km
Perigee altitude
561.792 km
Semi-major axis
6,945.084 km
Eccentricity
0.00074
Inclination
98.1074°
RAAN
112.206°
Arg. of periapsis
195.8702°
True anomaly
164.2519°
Mean anomaly
164.2288°
Eccentric anomaly
164.24035°
Mean motion
3.74996 °/min
Orbital period
96 mins
BSTAR
0.00042274
Loading maneuver chart data...
Computing Atmospheric mass density...

Documentation

Showing up to 5 results
|